Location: Medlow Airstrip Trail, Medlow Bath NSW 2780, Australia
(33.6682°S, 150.3233°E)
Time: 07:05:37
(UTC+11:00)

Explorer 11/Cluster Stage 4 - Pass Details

Date: 30 September 2019
Orbit: 467 x 1259 km, 28.8° (Epoch: 15 October)

Event Time Altitude Azimuth Distance (km) Brightness Sun altitude
Rises 04:35:15 0° 331° (NNW) 2,514 - -13.8°
Exits shadow 04:36:50 - 343° (NNW) 2,043 8.4 -13.5°
Reaches altitude 10° 04:39:15 10° 14° (NNE) 1,614 8.2 -13.0°
Maximum altitude 04:39:52 10° 24° (NNE) 1,595 8.3 -12.9°
Drops below altitude 10° 04:40:29 10° 34° (NE) 1,620 8.5 -12.7°
Sets 04:44:34 0° 77° (ENE) 2,567 10.6 -11.9°
